Theta_e
309 308 308 307 307 307 307 307 307 307 307 308 307 308 311 313 313 304 299 307 306 300 298 301 301 297 295 294 292 297 297 297 294 292 290 291 295 297 294 295 294 295 293 290 292 290 288 311 311 304 307 312 318 319
309 308 307 307 307 307 307 307 307 307 307 307 307 308 311 312 313 309 300 303 306 303 298 300 303 304 302 302 299 300 299 299 300 295 296 296 295 298 296 290 301 293 297 294 298 299 307 312 310 315 319 318 320 320
309 308 307 306 307 307 307 307 307 307 307 307 307 307 310 312 313 309 299 301 301 300 298 298 297 303 305 305 306 297 301 303 301 304 298 300 296 301 294 294 296 301 305 298 301 306 308 312 315 318 322 320 320 318
308 308 306 306 306 307 307 307 307 307 307 307 307 307 309 312 313 312 306 306 306 301 294 294 303 301 306 304 304 304 303 307 307 306 301 299 297 299 296 298 297 301 302 300 302 308 311 314 316 316 320 322 320 320
308 307 307 306 306 307 307 307 306 306 307 307 307 307 308 311 312 308 306 308 309 302 295 296 301 303 303 303 303 304 302 301 302 301 300 298 302 300 300 301 298 303 301 299 301 308 308 311 316 318 320 321 321 319
307 307 307 306 306 306 307 307 307 306 307 307 307 307 307 310 311 304 294 308 308 307 298 292 298 299 302 304 305 301 302 302 303 302 301 304 306 300 297 294 302 305 308 307 305 313 313 315 317 323 320 321 321 319
306 307 306 306 306 306 307 306 306 306 307 307 307 307 307 309 309 300 294 307 309 309 299 295 294 299 305 306 306 306 305 305 304 303 302 302 303 304 300 296 302 306 309 309 312 312 312 320 319 322 321 321 319 319
304 305 306 306 306 306 306 306 306 306 306 306 307 307 307 310 309 303 305 309 309 304 302 294 293 294 303 300 302 310 306 306 307 305 305 302 303 302 298 302 304 307 308 310 313 314 316 321 320 320 319 319 316 315
303 305 306 306 305 305 306 306 306 306 307 307 307 307 309 307 303 300 312 312 309 300 295 297 292 289 301 300 300 303 307 300 307 303 301 303 299 298 302 303 304 308 311 311 315 316 318 319 318 318 318 317 315 314
302 304 306 305 305 305 306 306 306 306 307 307 302 303 297 303 310 311 303 302 300 301 300 295 295 291 294 294 292 296 304 301 295 299 303 301 297 304 305 307 307 310 314 313 311 314 314 316 317 317 317 318 316 315
301 303 305 306 305 306 306 306 306 306 303 301 298 299 301 308 303 301 298 297 297 295 297 297 296 294 300 291 291 298 295 298 297 299 300 298 295 300 307 307 309 313 316 315 317 317 319 319 318 317 317 316 316 315
301 303 304 306 305 306 306 306 305 297 297 300 299 303 302 301 294 295 293 294 295 292 295 295 298 298 299 303 300 302 297 298 292 301 300 294 299 305 307 311 313 314 317 318 319 319 320 320 320 319 317 316 316 316
301 302 305 305 305 305 306 306 305 303 302 298 301 297 295 296 288 289 287 291 290 298 299 302 299 303 301 306 303 300 295 294 301 296 294 298 304 307 309 313 315 316 317 318 318 320 321 320 320 318 316 317 317 315
300 303 305 305 305 306 306 305 305 303 297 292 291 287 290 289 291 291 290 292 296 301 301 299 296 295 299 297 302 297 299 299 294 293 297 303 305 306 308 313 318 317 318 317 319 320 319 318 318 318 317 316 316 315
301 304 304 304 305 305 305 305 305 299 296 291 291 285 288 293 294 296 298 299 298 304 298 296 296 297 295 295 299 298 295 293 295 296 300 305 309 309 309 311 313 315 319 319 320 319 318 317 316 316 316 316 316 315
301 303 301 304 305 304 305 304 301 297 296 292 290 288 290 291 289 293 298 298 303 301 298 297 293 292 294 297 295 294 293 293 297 303 304 304 308 310 311 312 316 317 316 315 318 317 318 317 316 315 316 316 315 315
302 298 302 304 304 304 303 299 298 293 291 290 286 289 288 288 289 291 296 299 303 296 292 294 291 293 299 295 293 297 294 299 303 306 306 305 306 308 312 315 317 319 318 317 316 315 316 316 315 315 313 314 315 315
298 299 303 303 302 301 299 298 294 292 289 290 285 288 289 290 290 294 297 301 300 297 296 293 297 294 292 292 296 299 302 305 305 305 306 305 306 310 315 317 319 320 317 316 315 314 314 314 313 313 313 314 314 313
298 300 303 303 301 297 293 293 294 287 288 290 289 289 290 291 293 297 297 298 300 300 300 297 293 293 295 299 299 301 303 305 304 305 307 306 307 313 316 317 319 317 316 315 313 313 314 314 314 313 313 314 312 311
302 302 302 303 302 295 291 292 296 289 285 288 290 289 290 290 293 294 294 295 297 297 296 295 294 298 297 299 301 301 304 306 305 304 304 307 308 310 313 314 316 317 315 315 315 307 312 310 312 312 313 312 311 309
299 299 301 301 298 296 292 290 292 291 289 289 290 290 291 291 290 291 292 295 297 294 294 298 299 302 304 305 305 304 305 306 306 303 305 305 309 309 312 314 315 315 315 314 314 313 310 312 312 311 311 312 312 312
296 301 297 298 293 294 291 290 287 291 293 290 292 292 289 288 288 290 293 291 292 294 297 299 301 303 304 303 304 305 306 308 309 306 302 304 306 310 310 311 314 312 312 313 315 316 316 315 313 312 312 310 310 312
299 299 296 295 290 290 286 290 287 288 287 288 290 288 287 287 290 292 288 290 292 296 297 299 301 303 305 305 305 305 306 307 306 306 306 307 310 312 313 312 314 313 311 312 316 316 315 307 308 313 310 310 310 308
298 292 291 288 287 284 288 285 287 287 287 285 285 285 286 287 290 288 287 288 291 292 292 294 295 295 297 297 297 298 300 304 304 303 304 309 308 309 312 313 311 313 314 313 314 313 313 313 307 311 310 309 309 307
287 287 289 284 288 285 284 284 285 284 283 285 285 284 285 288 285 286 287 288 290 291 293 294 294 295 295 297 296 297 299 304 303 304 307 310 309 310 310 311 310 310 311 313 313 314 313 313 313 312 311 309 307 306
282 286 284 284 284 284 284 283 283 283 284 284 285 287 287 286 285 285 287 289 290 291 293 294 294 294 294 296 296 296 299 303 309 307 310 311 311 310 308 309 310 311 310 311 312 313 314 314 314 313 312 306 297 307
281 281 283 288 286 286 285 286 286 285 285 285 286 285 285 284 285 288 291 292 290 292 294 296 297 297 296 296 296 298 299 309 312 310 311 311 311 312 310 308 307 309 312 312 312 312 311 311 311 312 311 309 308 309
285 284 281 285 285 286 284 283 284 285 286 289 289 288 286 286 286 290 294 298 301 301 301 301 302 302 302 301 300 300 305 307 312 310 308 309 310 312 313 314 313 298 311 312 312 312 311 311 311 311 312 311 311 312
286 286 286 283 284 284 285 285 285 288 290 288 286 286 288 290 293 292 293 299 301 299 299 301 303 304 307 307 305 304 306 310 308 306 305 302 304 308 313 313 309 312 311 307 291 302 310 310 310 310 309 310 311 313
287 290 285 286 283 283 287 290 288 291 292 292 290 290 291 292 292 296 297 297 297 298 300 302 303 303 304 304 305 305 307 309 310 308 306 306 308 312 313 313 311 311 311 313 308 303 291 304 300 308 307 307 306 305
293 289 286 287 286 289 291 293 295 294 294 292 292 291 291 291 294 297 297 298 299 300 301 303 302 303 305 305 305 305 305 307 309 311 311 311 312 312 313 311 309 310 309 308 307 305 304 304 306 307 306 306 305 303
291 287 285 286 288 292 294 292 292 291 292 291 291 292 290 290 289 293 298 301 301 301 298 299 302 303 306 309 308 309 296 308 309 310 313 313 313 313 313 310 309 309 308 307 306 306 306 305 304 304 304 304 303 303
293 291 287 288 289 290 293 292 291 291 291 292 293 294 294 293 290 296 303 307 305 305 305 304 306 306 308 310 309 306 301 308 298 288 290 291 294 302 311 311 311 309 307 306 306 306 306 306 306 306 305 305 305 306
Wind_Speed
8 8 8 7 7 7 7 8 8 9 10 11 12 12 12 10 4 4 4 3 2 3 6 7 6 8 4 3 3 5 7 1 3 3 2 4 3 4 3 7 2 7 5 5 5 6 12 3 4 5 4 3 14 18
9 8 8 7 7 7 8 8 8 8 9 11 12 12 12 11 6 4 2 3 1 3 6 4 10 15 15 18 8 3 4 2 3 2 3 4 6 5 2 4 6 3 1 4 4 7 5 8 6 7 4 3 6 15
9 9 8 8 7 7 8 8 8 9 9 10 11 12 12 11 8 6 2 2 1 3 6 4 8 7 9 14 12 5 4 7 6 5 3 4 5 1 4 5 4 3 5 6 4 4 6 8 3 15 9 10 11 12
8 8 8 8 7 7 8 8 8 9 9 10 11 11 12 12 10 4 3 2 1 3 5 6 2 10 8 10 13 18 15 1 2 2 3 4 5 3 3 6 4 6 5 4 7 11 10 3 6 8 7 11 15 12
9 8 8 8 8 8 8 8 8 10 10 10 12 12 13 12 11 3 3 4 5 2 4 7 17 14 2 8 17 19 14 12 6 4 4 5 3 4 3 3 4 5 5 2 4 6 5 8 9 9 4 9 14 20
10 11 9 9 8 8 8 8 9 10 10 11 12 12 13 12 7 2 4 0 4 3 4 5 6 7 5 5 9 9 13 7 5 3 4 5 6 3 5 4 7 6 5 6 7 5 6 9 9 7 6 4 9 15
9 10 10 9 8 8 8 8 9 10 10 11 12 12 13 12 2 3 5 2 4 2 3 5 5 6 5 3 1 3 7 4 5 4 6 6 6 3 3 13 6 9 11 8 11 4 5 2 3 9 14 11 10 11
9 10 10 9 9 9 8 9 9 9 10 11 12 12 13 7 5 5 5 13 6 2 2 4 6 6 2 4 3 3 4 5 6 4 2 3 2 4 9 11 13 14 15 14 8 6 6 5 16 12 13 14 14 13
10 10 11 11 9 9 8 8 8 9 9 10 12 15 3 2 3 5 4 9 4 3 3 4 3 5 5 3 3 4 2 3 2 4 4 4 4 9 11 10 7 8 7 7 2 5 6 4 17 17 14 10 11 11
11 10 8 8 9 8 8 7 8 8 9 10 3 1 3 3 5 8 2 3 4 4 3 5 2 7 3 4 5 3 3 4 3 6 3 4 7 18 10 12 9 8 8 5 5 8 9 7 11 11 9 8 8 10
12 11 10 10 10 9 8 7 5 6 5 2 2 3 3 7 1 3 3 4 3 4 5 5 7 8 3 4 5 4 3 3 3 3 4 3 6 4 7 9 9 11 12 13 9 4 10 10 22 20 14 10 11 12
13 12 13 11 9 8 7 6 3 2 2 0 3 4 2 2 3 5 3 3 5 6 3 4 5 6 4 4 3 4 4 2 7 3 3 4 4 6 8 6 3 7 9 11 6 6 8 13 17 20 18 15 13 11
13 15 13 12 10 9 8 7 5 7 5 2 3 3 3 4 6 6 5 4 4 3 3 2 3 3 2 4 4 3 5 6 1 2 5 5 4 5 8 6 2 3 6 6 7 7 9 9 13 19 18 15 14 11
12 15 12 10 9 9 9 7 4 1 1 2 3 6 5 6 5 6 4 3 4 4 5 3 3 2 2 1 1 6 6 0 3 3 3 4 5 7 7 6 5 2 6 9 6 8 16 14 15 16 19 16 15 14
11 9 9 8 9 10 10 8 5 2 1 3 4 6 7 6 3 2 4 4 7 2 3 4 3 2 3 3 5 7 4 4 4 3 3 4 6 7 9 8 5 2 4 2 5 9 13 14 15 15 18 16 14 13
10 7 5 9 11 10 9 6 3 2 3 4 5 5 5 4 5 3 2 4 4 2 2 0 2 3 5 4 5 7 3 4 2 3 4 5 6 6 8 10 7 1 2 3 3 3 11 15 16 16 16 14 13 14
10 3 8 12 11 11 10 4 2 4 5 6 5 4 4 4 4 3 3 3 3 2 1 0 2 3 5 5 4 2 3 3 6 7 5 6 7 11 9 10 6 6 1 2 1 9 12 12 14 15 15 10 13 13
3 3 5 11 10 5 2 3 3 4 9 7 4 5 4 4 4 4 4 3 3 3 1 3 1 3 5 6 4 4 4 5 4 4 6 6 7 10 7 9 4 2 6 3 5 9 13 15 14 10 13 12 11 10
5 4 9 11 5 4 4 6 4 4 6 4 5 4 4 4 5 7 5 4 4 2 1 2 4 4 3 3 5 10 10 8 10 11 10 7 5 8 8 10 9 8 6 4 5 4 7 13 12 11 10 11 9 8
11 8 3 10 9 3 4 4 5 4 5 6 4 4 4 5 7 6 8 5 4 3 5 5 5 3 4 6 8 10 9 9 9 10 10 9 4 8 3 2 3 2 6 7 5 4 7 5 5 8 10 10 11 9
5 4 6 4 3 3 2 3 5 4 4 4 4 4 5 1 3 5 6 4 5 5 5 4 6 5 3 6 10 10 12 9 10 5 6 9 9 6 3 3 4 3 5 6 8 3 3 5 4 6 9 8 7 9
3 11 3 3 3 4 4 4 4 3 3 5 3 2 4 4 4 5 4 4 5 5 5 6 9 6 5 14 18 11 12 11 9 5 8 6 5 4 3 2 2 3 4 4 9 9 1 1 3 5 7 5 7 7
2 5 2 5 5 5 6 3 4 4 4 4 1 3 3 3 4 1 3 4 5 5 5 6 8 7 10 15 12 8 6 7 5 6 6 5 3 3 4 1 3 4 4 3 4 6 5 5 5 6 6 7 7 6
8 3 4 5 6 5 3 4 4 3 3 2 2 3 4 4 2 2 4 4 5 3 4 7 4 4 3 7 6 7 5 3 5 5 5 4 2 2 3 3 2 3 2 4 4 4 5 4 6 4 6 8 8 8
5 6 5 5 5 4 5 4 4 2 4 4 3 4 4 2 3 3 4 4 4 5 5 5 4 5 6 7 5 7 4 4 4 5 4 4 3 2 3 3 3 2 1 6 7 7 6 6 6 6 6 5 7 9
5 6 8 7 4 5 5 4 6 7 5 5 5 4 1 3 3 6 4 4 3 3 4 5 5 3 4 7 7 6 7 3 2 1 5 3 4 4 3 3 2 2 1 1 4 7 10 11 11 12 8 7 8 7
6 6 5 4 3 2 3 3 2 3 6 6 4 3 3 4 6 4 3 3 2 3 3 3 3 4 5 5 5 7 4 4 5 3 2 2 3 3 2 4 5 4 5 5 5 6 8 8 8 10 8 5 6 6
7 4 7 4 4 4 4 3 3 5 6 5 2 4 5 6 5 3 1 3 2 3 4 5 5 5 5 6 5 2 3 3 3 4 4 3 3 3 5 2 2 10 5 4 5 5 5 7 9 9 10 8 5 6
5 3 4 5 5 5 7 8 7 5 4 4 5 5 5 3 2 2 3 3 4 3 5 7 8 4 5 3 1 4 4 7 8 7 7 3 2 4 3 1 3 4 4 5 5 6 7 6 5 6 7 7 8 8
6 7 5 6 7 8 7 7 5 3 4 6 3 5 6 6 3 2 3 4 4 8 8 6 6 4 5 3 2 2 0 4 4 5 5 6 6 5 6 7 5 4 4 5 5 5 5 5 5 5 5 5 4 4
4 7 5 6 8 8 10 6 3 3 3 6 5 6 9 4 4 4 5 6 8 8 6 7 6 5 5 5 5 4 3 2 4 5 5 3 4 5 5 6 6 6 6 7 6 5 5 4 4 6 8 7 7 5
6 10 7 7 5 6 7 6 5 4 4 7 9 6 2 2 6 6 6 6 6 7 8 6 5 6 3 4 4 4 5 5 5 5 6 4 4 4 5 5 6 7 8 9 8 9 10 9 7 7 7 7 6 8
7 5 3 2 3 5 6 6 7 4 5 5 5 6 6 5 7 5 2 4 5 5 6 5 5 5 6 4 4 4 4 3 5 5 4 2 4 6 5 5 5 6 7 7 6 7 8 9 6 6 6 7 8 8
Wind_Direction
219 210 226 245 264 279 287 296 304 314 320 324 328 335 334 334 332 123 261 235 233 250 272 235 243 254 272 163 234 313 319 315 344 325 318 312 344 311 220 207 265 286 208 198 184 202 258 198 271 211 282 258 171 162
210 211 226 242 255 270 279 288 296 308 316 320 325 331 334 334 332 150 281 297 213 236 257 219 235 238 230 240 250 233 255 343 257 297 329 328 286 255 272 273 242 352 52 285 271 231 289 315 281 271 295 191 125 142
203 213 225 242 254 268 279 288 296 305 312 316 321 328 328 316 314 188 224 261 5 265 270 264 244 255 219 228 217 227 215 214 223 197 234 249 265 229 292 247 252 235 229 228 293 239 260 264 310 18 21 53 74 98
213 210 226 241 251 264 274 283 293 301 310 315 318 322 324 319 314 236 212 201 204 279 279 285 321 278 212 204 203 210 232 238 233 204 236 275 273 221 246 259 243 254 312 301 281 284 304 314 22 7 348 110 98 96
214 215 229 237 251 259 270 281 291 299 309 314 316 320 325 326 313 262 238 222 211 225 287 301 303 279 206 189 225 216 218 222 238 239 223 244 235 261 232 263 253 190 213 185 250 268 278 276 335 317 242 144 150 124
229 214 218 230 244 256 263 277 285 296 306 312 313 317 319 316 313 36 331 41 208 179 297 298 284 287 298 224 221 199 200 200 210 210 222 223 234 181 257 254 246 241 239 216 261 197 259 277 260 245 106 82 111 125
290 239 214 227 240 252 262 274 285 295 304 308 307 310 309 308 257 187 198 124 116 129 254 282 278 278 281 276 265 148 173 190 198 223 224 244 254 202 254 263 260 244 244 236 243 260 292 346 111 109 108 110 118 129
301 286 217 218 232 248 259 271 283 294 304 305 304 303 304 291 253 276 247 235 166 223 255 270 268 330 297 298 291 171 173 191 204 229 253 220 216 208 249 243 246 239 244 259 248 212 250 174 103 96 103 125 130 138
291 297 240 212 223 238 251 266 280 291 300 300 304 299 284 188 230 242 314 176 176 165 249 247 255 277 344 330 288 309 230 237 190 224 228 167 205 226 229 222 227 208 210 247 202 236 242 201 121 128 120 122 136 153
291 298 255 213 229 238 246 257 276 294 299 307 300 267 268 216 278 282 355 184 182 218 229 249 212 265 26 359 288 288 214 227 217 230 150 215 248 251 254 237 234 193 216 213 220 202 207 219 98 78 105 129 159 159
283 285 274 226 230 235 245 252 278 318 343 186 231 233 258 305 359 227 241 207 173 229 208 234 214 235 216 186 229 221 274 264 263 219 194 232 272 257 287 263 227 198 191 204 225 267 210 205 138 146 160 156 159 165
277 284 274 232 225 231 238 237 257 61 268 236 276 289 282 261 233 244 220 219 200 241 191 198 219 198 241 205 211 231 243 231 246 176 243 252 249 299 301 323 328 193 185 191 205 235 192 183 172 156 146 150 158 153
273 285 247 217 221 226 224 209 230 227 315 331 224 244 196 203 226 231 196 217 236 223 244 261 264 217 255 206 243 214 235 235 90 198 230 232 293 321 327 324 49 142 170 182 233 220 202 177 171 146 140 139 148 144
267 278 212 211 221 228 210 197 207 256 189 233 212 245 225 216 222 215 223 246 255 261 306 256 262 230 275 284 331 262 235 269 257 250 281 321 316 321 327 341 328 233 204 210 260 224 176 173 167 148 137 141 145 150
276 238 202 223 225 214 198 189 173 102 251 246 231 235 226 261 292 292 285 269 251 243 270 297 289 184 239 224 177 280 264 249 226 245 238 276 296 291 292 304 307 271 120 264 309 210 171 157 150 150 139 144 144 141
282 220 215 203 206 197 192 174 131 153 233 230 237 240 245 279 273 245 227 266 296 271 298 308 280 278 242 224 195 237 248 240 303 322 291 295 289 279 271 276 295 264 152 94 342 205 160 158 159 143 136 141 141 148
235 216 205 197 203 184 178 136 159 216 236 239 252 221 231 278 236 235 263 260 261 303 189 59 244 253 311 251 244 269 260 322 313 309 306 288 293 300 289 284 263 296 338 40 193 160 160 146 131 129 133 143 146 156
218 218 232 188 171 119 176 190 228 242 229 233 234 235 211 215 214 217 230 228 224 263 124 234 292 244 204 279 335 324 300 302 275 276 294 300 291 305 301 287 315 318 59 23 166 156 144 140 139 136 138 140 135 137
180 180 196 146 126 125 191 199 215 253 247 238 238 233 221 240 232 241 247 261 194 220 229 237 246 228 273 342 312 308 314 322 322 316 301 296 298 315 314 301 321 99 86 115 117 137 145 151 151 148 145 144 144 146
135 113 144 159 160 195 218 204 189 227 248 229 221 227 203 213 234 226 230 218 168 194 214 223 220 223 196 277 278 279 281 284 287 301 309 321 314 322 1 313 289 64 90 120 101 85 93 79 129 138 144 149 148 157
137 177 159 139 204 230 282 261 228 220 245 243 247 193 230 230 216 227 241 185 188 207 236 216 228 228 192 278 279 278 275 268 266 242 282 301 314 307 338 25 72 95 149 149 120 87 103 124 148 140 137 149 149 152
182 181 137 167 249 211 239 222 230 274 249 253 291 221 246 244 236 220 190 174 215 211 207 225 239 217 190 250 266 266 261 273 272 274 282 259 286 320 311 140 131 109 101 161 151 141 202 149 124 140 140 132 136 140
107 151 212 179 216 229 247 159 217 228 224 253 311 247 247 247 239 96 228 220 223 208 213 219 240 208 207 244 264 276 268 262 268 265 278 284 280 305 321 93 133 126 120 100 135 149 152 179 169 154 123 131 130 128
85 267 220 193 200 240 241 232 217 245 239 229 241 257 263 240 261 224 240 235 234 214 204 229 229 270 294 283 267 269 267 231 267 267 246 251 237 348 333 340 20 88 127 128 134 138 141 141 130 131 147 150 149 150
223 206 213 210 195 215 223 233 209 214 233 213 227 259 265 233 246 249 238 251 226 223 230 230 216 217 234 260 273 269 254 225 275 299 294 217 147 96 54 13 2 53 118 138 149 150 145 125 116 116 130 146 157 160
241 214 197 198 211 197 215 220 200 212 188 191 243 242 241 211 244 246 249 240 229 217 226 209 210 231 240 214 240 268 267 232 155 290 289 207 203 165 169 173 192 259 252 204 142 167 161 154 155 157 168 157 140 152
231 245 235 222 192 204 260 255 230 178 182 205 232 228 221 233 239 245 284 345 333 300 291 282 224 208 227 254 236 244 233 202 202 206 261 209 286 279 164 171 212 212 159 170 159 162 157 154 159 162 145 107 124 109
222 220 194 200 206 205 214 227 221 219 216 211 242 223 213 212 236 228 199 275 272 312 304 286 264 243 254 243 235 180 191 154 117 94 45 14 293 287 270 226 143 143 139 146 140 129 133 144 142 138 134 132 115 88
223 204 176 229 209 220 210 202 213 218 205 173 195 217 241 239 225 237 256 278 312 343 325 321 316 325 316 322 250 189 170 148 150 166 185 195 218 280 285 107 125 131 123 119 88 109 133 127 127 126 130 150 151 154
216 175 208 209 200 217 212 197 215 220 223 237 220 276 274 269 264 263 315 327 315 295 284 276 281 290 277 265 204 101 84 191 185 161 183 202 208 170 167 169 167 159 139 149 118 97 83 104 109 103 111 102 107 129
158 182 222 219 244 241 241 235 265 231 229 248 249 256 270 291 292 246 238 252 256 253 258 272 277 262 228 207 197 184 168 219 166 161 170 184 161 148 148 146 146 146 145 142 145 141 135 121 131 134 127 144 141 121
201 201 191 215 240 223 217 224 209 220 225 241 244 236 205 231 266 262 224 202 222 229 231 229 244 262 227 211 196 250 232 168 172 173 180 167 146 148 141 138 137 141 143 141 138 138 137 136 140 146 154 153 154 165
222 177 146 239 234 222 177 187 186 214 202 212 210 199 195 199 231 253 259 185 207 219 221 221 236 256 275 257 188 169 176 144 94 92 86 38 138 137 133 131 123 117 123 125 134 134 139 140 147 155 158 168 162 157